Year,Month,Day,Hour,Minute,Value (Times are PST for temperature in C)
2017,06,23,00,01,12.30
2017,06,23,00,02,12.20
2017,06,23,00,03,12.20
2017,06,23,00,04,12.20
2017,06,23,00,06,12.10
2017,06,23,00,07,12.10
2017,06,23,00,09,12.00
2017,06,23,00,10,12.00
2017,06,23,00,12,11.90
2017,06,23,00,13,11.90
2017,06,23,00,14,11.90
2017,06,23,00,16,11.80
2017,06,23,00,17,11.80
2017,06,23,00,18,11.80
2017,06,23,00,19,11.80
2017,06,23,00,21,11.80
2017,06,23,00,22,11.80
2017,06,23,00,23,11.80
2017,06,23,00,24,11.70
2017,06,23,00,26,11.70
2017,06,23,00,27,11.70
2017,06,23,00,28,11.70
2017,06,23,00,29,11.70
2017,06,23,00,31,11.70
2017,06,23,00,32,11.70
2017,06,23,00,33,11.60
2017,06,23,00,34,11.60
2017,06,23,00,36,11.60
2017,06,23,00,37,11.60
2017,06,23,00,38,11.60
2017,06,23,00,39,11.60
2017,06,23,00,41,11.60
2017,06,23,00,42,11.60
2017,06,23,00,43,11.60
2017,06,23,00,44,11.60
2017,06,23,00,46,11.60
2017,06,23,00,47,11.60
2017,06,23,00,48,11.60
2017,06,23,00,49,11.60
2017,06,23,00,51,11.60
2017,06,23,00,52,11.60
2017,06,23,00,53,11.60
2017,06,23,00,54,11.60
2017,06,23,00,56,11.60
2017,06,23,00,57,11.60
2017,06,23,00,58,11.60
2017,06,23,00,59,11.40
2017,06,23,01,01,11.40
2017,06,23,01,02,11.40
2017,06,23,01,03,11.40
2017,06,23,01,04,11.40
2017,06,23,01,06,11.40
2017,06,23,01,07,11.40
2017,06,23,01,08,11.40
2017,06,23,01,09,11.40
2017,06,23,01,11,11.40
2017,06,23,01,12,11.40
2017,06,23,01,13,11.40
2017,06,23,01,14,11.40
2017,06,23,01,16,11.40
2017,06,23,01,17,11.40
2017,06,23,01,18,11.40
2017,06,23,01,19,11.40
2017,06,23,01,20,11.40
2017,06,23,01,21,11.40
2017,06,23,01,22,11.40
2017,06,23,01,23,11.40
2017,06,23,01,24,11.40
2017,06,23,01,25,11.40
2017,06,23,01,26,11.60
2017,06,23,01,27,11.60
2017,06,23,01,28,11.60
2017,06,23,01,29,11.40
2017,06,23,01,30,11.40
2017,06,23,01,31,11.40
2017,06,23,01,32,11.40
2017,06,23,01,33,11.40
2017,06,23,01,34,11.40
2017,06,23,01,35,11.40
2017,06,23,01,36,11.40
2017,06,23,01,37,11.60
2017,06,23,01,38,11.60
2017,06,23,01,39,11.60
2017,06,23,01,40,11.60
2017,06,23,01,41,11.60
2017,06,23,01,42,11.60
2017,06,23,01,43,11.60
2017,06,23,01,44,11.60
2017,06,23,01,45,11.60
2017,06,23,01,46,11.60
2017,06,23,01,47,11.60
2017,06,23,01,48,11.40
2017,06,23,01,49,11.60
2017,06,23,01,50,11.40
2017,06,23,01,51,11.40
2017,06,23,01,52,11.40
2017,06,23,01,53,11.40
2017,06,23,01,54,11.40
2017,06,23,01,55,11.40
2017,06,23,01,56,11.40
2017,06,23,01,57,11.40
2017,06,23,01,58,11.40
2017,06,23,01,59,11.40
2017,06,23,02,00,11.40
2017,06,23,02,01,11.40
2017,06,23,02,02,11.40
2017,06,23,02,03,11.40
2017,06,23,02,04,11.40
2017,06,23,02,05,11.40
2017,06,23,02,06,11.40
2017,06,23,02,07,11.40
2017,06,23,02,08,11.40
2017,06,23,02,09,11.40
2017,06,23,02,10,11.40
2017,06,23,02,11,11.40
2017,06,23,02,12,11.40
2017,06,23,02,13,11.40
2017,06,23,02,14,11.40
2017,06,23,02,15,11.40
2017,06,23,02,16,11.40
2017,06,23,02,17,11.40
2017,06,23,02,18,11.40
2017,06,23,02,19,11.40
2017,06,23,02,20,11.40
2017,06,23,02,21,11.40
2017,06,23,02,22,11.40
2017,06,23,02,23,11.30
2017,06,23,02,24,11.30
2017,06,23,02,25,11.30
2017,06,23,02,26,11.30
2017,06,23,02,27,11.30
2017,06,23,02,28,11.30
2017,06,23,02,29,11.30
2017,06,23,02,30,11.30
2017,06,23,02,31,11.30
2017,06,23,02,32,11.30
2017,06,23,02,33,11.30
2017,06,23,02,34,11.30
2017,06,23,02,35,11.30
2017,06,23,02,36,11.30
2017,06,23,02,37,11.30
2017,06,23,02,39,11.30
2017,06,23,02,41,11.20
2017,06,23,02,42,11.20
2017,06,23,02,43,11.20
2017,06,23,02,44,11.20
2017,06,23,02,46,11.20
2017,06,23,02,47,11.20
2017,06,23,02,48,11.20
2017,06,23,02,49,11.20
2017,06,23,02,51,11.10
2017,06,23,02,52,11.10
2017,06,23,02,53,11.10
2017,06,23,02,54,11.10
2017,06,23,02,56,11.10
2017,06,23,02,57,11.10
2017,06,23,02,58,11.10
2017,06,23,02,59,11.10
2017,06,23,03,01,11.10
2017,06,23,03,02,11.10
2017,06,23,03,03,11.10
2017,06,23,03,04,11.10
2017,06,23,03,06,11.10
2017,06,23,03,07,11.10
2017,06,23,03,08,10.90
2017,06,23,03,09,10.90
2017,06,23,03,11,10.90
2017,06,23,03,12,10.90
2017,06,23,03,13,10.90
2017,06,23,03,14,10.90
2017,06,23,03,16,11.10
2017,06,23,03,17,11.10
2017,06,23,03,18,11.10
2017,06,23,03,19,11.10
2017,06,23,03,21,11.10
2017,06,23,03,22,11.10
2017,06,23,03,23,11.10
2017,06,23,03,24,11.10
2017,06,23,03,26,11.10
2017,06,23,03,27,11.10
2017,06,23,03,28,11.10
2017,06,23,03,29,11.10
2017,06,23,03,31,11.10
2017,06,23,03,32,11.10
2017,06,23,03,33,11.10
2017,06,23,03,34,11.10
2017,06,23,03,36,11.10
2017,06,23,03,37,11.10
2017,06,23,03,38,11.10
2017,06,23,03,39,11.10
2017,06,23,03,41,11.10
2017,06,23,03,42,11.10
2017,06,23,03,43,11.10
2017,06,23,03,44,11.10
2017,06,23,03,46,10.90
2017,06,23,03,47,10.90
2017,06,23,03,48,10.90
2017,06,23,03,49,10.90
2017,06,23,03,51,10.90
2017,06,23,03,52,10.90
2017,06,23,03,53,10.90
2017,06,23,03,54,10.90
2017,06,23,03,55,10.90
2017,06,23,03,56,10.90
2017,06,23,03,57,10.90
2017,06,23,03,58,10.90
2017,06,23,03,59,10.90
2017,06,23,04,00,10.90
2017,06,23,04,01,10.90
2017,06,23,04,02,10.90
2017,06,23,04,03,10.90
2017,06,23,04,04,10.90
2017,06,23,04,06,10.90
2017,06,23,04,07,10.90
2017,06,23,04,08,10.90
2017,06,23,04,09,10.90
2017,06,23,04,10,10.90
2017,06,23,04,11,10.90
2017,06,23,04,12,10.90
2017,06,23,04,13,10.90
2017,06,23,04,14,10.90
2017,06,23,04,15,10.90
2017,06,23,04,16,10.90
2017,06,23,04,17,10.90
2017,06,23,04,18,10.90
2017,06,23,04,19,10.90
2017,06,23,04,20,10.90
2017,06,23,04,21,10.90
2017,06,23,04,22,10.90
2017,06,23,04,23,10.90
2017,06,23,04,24,10.90
2017,06,23,04,25,10.90
2017,06,23,04,26,10.90
2017,06,23,04,27,10.90
2017,06,23,04,28,10.80
2017,06,23,04,29,10.80
2017,06,23,04,30,10.80
2017,06,23,04,31,10.80
2017,06,23,04,32,10.80
2017,06,23,04,33,10.80
2017,06,23,04,34,10.70
2017,06,23,04,35,10.70
2017,06,23,04,36,10.70
2017,06,23,04,37,10.70
2017,06,23,04,38,10.70
2017,06,23,04,39,10.70
2017,06,23,04,40,10.70
2017,06,23,04,41,10.70
2017,06,23,04,42,10.70
2017,06,23,04,43,10.70
2017,06,23,04,44,10.70
2017,06,23,04,45,10.70
2017,06,23,04,46,10.70
2017,06,23,04,47,10.70
2017,06,23,04,48,10.70
2017,06,23,04,49,10.70
2017,06,23,04,50,10.70
2017,06,23,04,51,10.70
2017,06,23,04,52,10.80
2017,06,23,04,53,10.80
2017,06,23,04,54,10.80
2017,06,23,04,55,10.90
2017,06,23,04,56,10.90
2017,06,23,04,57,10.90
2017,06,23,04,58,10.90
2017,06,23,04,59,10.90
2017,06,23,05,00,10.90
2017,06,23,05,01,10.90
2017,06,23,05,02,10.90
2017,06,23,05,03,10.90
2017,06,23,05,04,10.90
2017,06,23,05,05,10.90
2017,06,23,05,06,10.90
2017,06,23,05,07,10.90
2017,06,23,05,08,10.90
2017,06,23,05,09,10.90
2017,06,23,05,10,10.90
2017,06,23,05,11,10.90
2017,06,23,05,12,10.90
2017,06,23,05,14,10.90
2017,06,23,05,16,10.90
2017,06,23,05,17,10.90
2017,06,23,05,18,10.90
2017,06,23,05,19,10.80
2017,06,23,05,21,10.80
2017,06,23,05,22,10.80
2017,06,23,05,23,10.80
2017,06,23,05,24,10.70
2017,06,23,05,26,10.70
2017,06,23,05,27,10.70
2017,06,23,05,28,10.80
2017,06,23,05,29,10.80
2017,06,23,05,31,10.90
2017,06,23,05,32,10.90
2017,06,23,05,33,10.90
2017,06,23,05,34,10.90
2017,06,23,05,36,11.10
2017,06,23,05,37,11.10
2017,06,23,05,38,11.10
2017,06,23,05,39,11.10
2017,06,23,05,41,11.20
2017,06,23,05,42,11.20
2017,06,23,05,43,11.20
2017,06,23,05,44,11.20
2017,06,23,05,46,11.20
2017,06,23,05,47,11.30
2017,06,23,05,48,11.30
2017,06,23,05,49,11.30
2017,06,23,05,51,11.40
2017,06,23,05,52,11.40
2017,06,23,05,53,11.40
2017,06,23,05,54,11.40
2017,06,23,05,56,11.40
2017,06,23,05,57,11.40
2017,06,23,05,58,11.40
2017,06,23,05,59,11.40
2017,06,23,06,01,11.40
2017,06,23,06,02,11.40
2017,06,23,06,03,11.40
2017,06,23,06,04,11.40
2017,06,23,06,06,11.60
2017,06,23,06,07,11.60
2017,06,23,06,08,11.60
2017,06,23,06,09,11.60
2017,06,23,06,11,11.60
2017,06,23,06,12,11.60
2017,06,23,06,13,11.60
2017,06,23,06,14,11.60
2017,06,23,06,16,11.60
2017,06,23,06,17,11.70
2017,06,23,06,18,11.70
2017,06,23,06,19,11.70
2017,06,23,06,21,11.70
2017,06,23,06,22,11.70
2017,06,23,06,23,11.70
2017,06,23,06,24,11.70
2017,06,23,06,26,11.70
2017,06,23,06,27,11.70
2017,06,23,06,28,11.70
2017,06,23,06,29,11.60
2017,06,23,06,31,11.60
2017,06,23,06,32,11.60
2017,06,23,06,33,11.60
2017,06,23,06,34,11.60
2017,06,23,06,36,11.70
2017,06,23,06,37,11.70
2017,06,23,06,38,11.70
2017,06,23,06,39,11.70
2017,06,23,06,40,11.70
2017,06,23,06,41,11.70
2017,06,23,06,42,11.80
2017,06,23,06,43,11.80
2017,06,23,06,44,11.80
2017,06,23,06,45,11.80
2017,06,23,06,46,11.80
2017,06,23,06,47,11.80
2017,06,23,06,48,11.80
2017,06,23,06,49,11.80
2017,06,23,06,50,11.80
2017,06,23,06,51,11.80
2017,06,23,06,52,11.80
2017,06,23,06,53,11.80
2017,06,23,06,54,11.80
2017,06,23,06,55,11.80
2017,06,23,06,56,11.80
2017,06,23,06,57,11.80
2017,06,23,06,58,11.80
2017,06,23,06,59,11.80
2017,06,23,07,00,11.80
2017,06,23,07,01,11.80
2017,06,23,07,02,11.80
2017,06,23,07,03,11.80
2017,06,23,07,04,11.80
2017,06,23,07,06,11.80
2017,06,23,07,07,11.80
2017,06,23,07,08,11.80
2017,06,23,07,09,11.80
2017,06,23,07,10,11.80
2017,06,23,07,11,11.80
2017,06,23,07,12,11.80
2017,06,23,07,13,11.80
2017,06,23,07,14,11.80
2017,06,23,07,15,11.80
2017,06,23,07,16,11.80
2017,06,23,07,17,11.80
2017,06,23,07,18,11.80
2017,06,23,07,19,11.80
2017,06,23,07,20,11.80
2017,06,23,07,21,11.90
2017,06,23,07,22,11.90
2017,06,23,07,23,11.90
2017,06,23,07,24,11.90
2017,06,23,07,25,11.90
2017,06,23,07,26,11.90
2017,06,23,07,27,11.90
2017,06,23,07,28,12.00
2017,06,23,07,29,12.00
2017,06,23,07,30,12.00
2017,06,23,07,31,12.00
2017,06,23,07,32,12.00
2017,06,23,07,33,12.10
2017,06,23,07,34,12.10
2017,06,23,07,35,12.10
2017,06,23,07,36,12.20
2017,06,23,07,37,12.20
2017,06,23,07,38,12.20
2017,06,23,07,39,12.30
2017,06,23,07,40,12.30
2017,06,23,07,41,12.30
2017,06,23,07,42,12.30
2017,06,23,07,43,12.30
2017,06,23,07,44,12.40
2017,06,23,07,45,12.40
2017,06,23,07,46,12.40
2017,06,23,07,47,12.50
2017,06,23,07,48,12.50
2017,06,23,07,49,12.50
2017,06,23,07,50,12.60
2017,06,23,07,51,12.60
2017,06,23,07,52,12.70
2017,06,23,07,53,12.70
2017,06,23,07,54,12.70
2017,06,23,07,55,12.70
2017,06,23,07,56,12.80
2017,06,23,07,57,12.80
2017,06,23,07,58,12.80
2017,06,23,07,59,12.80
2017,06,23,08,00,12.80
2017,06,23,08,02,12.80
2017,06,23,08,03,12.90
2017,06,23,08,04,12.90
2017,06,23,08,06,12.90
2017,06,23,08,07,12.90
2017,06,23,08,08,13.00
2017,06,23,08,09,13.00
2017,06,23,08,11,13.00
2017,06,23,08,12,13.00
2017,06,23,08,13,13.10
2017,06,23,08,14,13.10
2017,06,23,08,16,13.10
2017,06,23,08,17,13.20
2017,06,23,08,18,13.20
2017,06,23,08,19,13.30
2017,06,23,08,21,13.40
2017,06,23,08,22,13.40
2017,06,23,08,23,13.50
2017,06,23,08,24,13.50
2017,06,23,08,26,13.70
2017,06,23,08,27,13.70
2017,06,23,08,28,13.70
2017,06,23,08,29,13.80
2017,06,23,08,31,13.90
2017,06,23,08,32,14.00
2017,06,23,08,33,14.10
2017,06,23,08,34,14.20
2017,06,23,08,36,14.20
2017,06,23,08,37,14.20
2017,06,23,08,38,14.20
2017,06,23,08,39,14.30
2017,06,23,08,41,14.40
2017,06,23,08,42,14.40
2017,06,23,08,43,14.50
2017,06,23,08,44,14.60
2017,06,23,08,46,14.70
2017,06,23,08,47,14.70
2017,06,23,08,48,14.80
2017,06,23,08,49,14.80
2017,06,23,08,51,14.80
2017,06,23,08,52,14.90
2017,06,23,08,53,14.90
2017,06,23,08,54,15.00
2017,06,23,08,56,15.00
2017,06,23,08,57,15.10
2017,06,23,08,58,15.20
2017,06,23,08,59,15.20
2017,06,23,09,01,15.30
2017,06,23,09,02,15.30
2017,06,23,09,03,15.30
2017,06,23,09,04,15.30
2017,06,23,09,06,15.40
2017,06,23,09,07,15.50
2017,06,23,09,08,15.50
2017,06,23,09,09,15.60
2017,06,23,09,10,15.70
2017,06,23,09,11,15.80
2017,06,23,09,12,15.80
2017,06,23,09,13,15.80
2017,06,23,09,14,15.90
2017,06,23,09,15,16.10
2017,06,23,09,16,16.10
2017,06,23,09,17,16.10
2017,06,23,09,18,16.10
2017,06,23,09,19,16.10
2017,06,23,09,20,16.20
2017,06,23,09,21,16.20
2017,06,23,09,22,16.20
2017,06,23,09,23,16.30
2017,06,23,09,24,16.30
2017,06,23,09,25,16.30
2017,06,23,09,26,16.30
2017,06,23,09,27,16.30
2017,06,23,09,28,16.40
2017,06,23,09,29,16.40
2017,06,23,09,30,16.40
2017,06,23,09,31,16.40
2017,06,23,09,32,16.40
2017,06,23,09,33,16.40
2017,06,23,09,34,16.30
2017,06,23,09,35,16.30
2017,06,23,09,36,16.30
2017,06,23,09,37,16.30
2017,06,23,09,38,16.40
2017,06,23,09,39,16.40
2017,06,23,09,40,16.40
2017,06,23,09,41,16.40
2017,06,23,09,42,16.40
2017,06,23,09,43,16.40
2017,06,23,09,44,16.40
2017,06,23,09,45,16.60
2017,06,23,09,46,16.60
2017,06,23,09,47,16.60
2017,06,23,09,48,16.70
2017,06,23,09,49,16.70
2017,06,23,09,50,16.70
2017,06,23,09,51,16.70
2017,06,23,09,52,16.80
2017,06,23,09,53,16.80
2017,06,23,09,54,16.80
2017,06,23,09,55,16.90
2017,06,23,09,56,16.90
2017,06,23,09,57,17.00
2017,06,23,09,58,17.00
2017,06,23,09,59,17.00
2017,06,23,10,00,17.00
2017,06,23,10,01,17.10
2017,06,23,10,02,17.10
2017,06,23,10,03,17.20
2017,06,23,10,04,17.20
2017,06,23,10,05,17.20
2017,06,23,10,06,17.20
2017,06,23,10,07,17.20
2017,06,23,10,08,17.10
2017,06,23,10,09,17.10
2017,06,23,10,10,17.10
2017,06,23,10,11,17.00
2017,06,23,10,12,17.00
2017,06,23,10,13,17.00
2017,06,23,10,14,17.00
2017,06,23,10,15,17.00
2017,06,23,10,16,16.90
2017,06,23,10,17,17.00
2017,06,23,10,18,17.00
2017,06,23,10,19,16.90
2017,06,23,10,20,16.90
2017,06,23,10,21,16.90
2017,06,23,10,22,16.90
2017,06,23,10,23,16.90
2017,06,23,10,24,16.90
2017,06,23,10,25,16.90
2017,06,23,10,27,16.80
2017,06,23,10,28,16.80
2017,06,23,10,29,16.80
2017,06,23,10,31,16.70
2017,06,23,10,32,16.70
2017,06,23,10,33,16.70
2017,06,23,10,34,16.70
2017,06,23,10,36,16.70
2017,06,23,10,37,16.70
2017,06,23,10,38,16.70
2017,06,23,10,39,16.70
2017,06,23,10,41,16.70
2017,06,23,10,42,16.70
2017,06,23,10,43,16.70
2017,06,23,10,44,16.70
2017,06,23,10,46,16.90
2017,06,23,10,47,16.90
2017,06,23,10,48,17.00
2017,06,23,10,49,17.00
2017,06,23,10,51,17.10
2017,06,23,10,52,17.20
2017,06,23,10,53,17.30
2017,06,23,10,54,17.30
2017,06,23,10,56,17.30
2017,06,23,10,57,17.30
2017,06,23,10,58,17.30
2017,06,23,10,59,17.30
2017,06,23,11,01,17.30
2017,06,23,11,02,17.40
2017,06,23,11,03,17.40
2017,06,23,11,04,17.50
2017,06,23,11,06,17.50
2017,06,23,11,07,17.60
2017,06,23,11,08,17.60
2017,06,23,11,09,17.60
2017,06,23,11,11,17.70
2017,06,23,11,12,17.70
2017,06,23,11,13,17.70
2017,06,23,11,14,17.70
2017,06,23,11,16,17.70
2017,06,23,11,17,17.70
2017,06,23,11,18,17.70
2017,06,23,11,19,17.80
2017,06,23,11,21,17.90
2017,06,23,11,22,17.90
2017,06,23,11,23,17.90
2017,06,23,11,24,17.90
2017,06,23,11,26,17.90
2017,06,23,11,27,17.90
2017,06,23,11,28,17.90
2017,06,23,11,29,17.90
2017,06,23,11,31,17.90
2017,06,23,11,32,17.90
2017,06,23,11,33,17.90
2017,06,23,11,34,17.90
2017,06,23,11,36,17.90
2017,06,23,11,37,17.90
2017,06,23,11,38,17.90
2017,06,23,11,39,17.90
2017,06,23,11,41,17.80
2017,06,23,11,42,17.80
2017,06,23,11,43,17.80
2017,06,23,11,44,17.70
2017,06,23,11,46,17.80
2017,06,23,11,47,17.80
2017,06,23,11,48,17.70
2017,06,23,11,49,17.70
2017,06,23,11,51,17.60
2017,06,23,11,52,17.60
2017,06,23,11,53,17.60
2017,06,23,11,54,17.60
2017,06,23,11,56,17.60
2017,06,23,11,57,17.60
2017,06,23,11,58,17.50
2017,06,23,11,59,17.50
2017,06,23,12,00,17.50
2017,06,23,12,01,17.50
2017,06,23,12,02,17.50
2017,06,23,12,03,17.60
2017,06,23,12,04,17.70
2017,06,23,12,06,17.80
2017,06,23,12,07,17.90
2017,06,23,12,08,17.90
2017,06,23,12,09,17.90
2017,06,23,12,10,18.10
2017,06,23,12,11,18.10
2017,06,23,12,12,18.20
2017,06,23,12,13,18.20
2017,06,23,12,14,18.20
2017,06,23,12,15,18.30
2017,06,23,12,16,18.40
2017,06,23,12,17,18.60
2017,06,23,12,18,18.70
2017,06,23,12,19,18.80
2017,06,23,12,20,18.80
2017,06,23,12,21,18.90
2017,06,23,12,22,18.90
2017,06,23,12,23,19.10
2017,06,23,12,24,19.10
2017,06,23,12,25,19.30
2017,06,23,12,26,19.40
2017,06,23,12,27,19.50
2017,06,23,12,28,19.60
2017,06,23,12,29,19.70
2017,06,23,12,30,19.80
2017,06,23,12,31,19.90
2017,06,23,12,32,19.90
2017,06,23,12,33,20.10
2017,06,23,12,34,20.20
2017,06,23,12,35,20.20
2017,06,23,12,36,20.20
2017,06,23,12,37,20.30
2017,06,23,12,38,20.20
2017,06,23,12,39,20.30
2017,06,23,12,40,20.30
2017,06,23,12,41,20.20
2017,06,23,12,42,20.20
2017,06,23,12,43,20.20
2017,06,23,12,44,20.20
2017,06,23,12,45,20.20
2017,06,23,12,46,20.20
2017,06,23,12,47,20.20
2017,06,23,12,48,20.20
2017,06,23,12,49,20.20
2017,06,23,12,50,20.20
2017,06,23,12,51,20.20
2017,06,23,12,52,20.10
2017,06,23,12,53,19.90
2017,06,23,12,54,19.90
2017,06,23,12,55,19.80
2017,06,23,12,56,19.70
2017,06,23,12,57,19.60
2017,06,23,12,58,19.60
2017,06,23,12,59,19.60
2017,06,23,13,00,19.60
2017,06,23,13,01,19.60
2017,06,23,13,02,19.60
2017,06,23,13,03,19.60
2017,06,23,13,04,19.70
2017,06,23,13,05,19.70
2017,06,23,13,06,19.80
2017,06,23,13,07,19.90
2017,06,23,13,08,19.90
2017,06,23,13,09,19.90
2017,06,23,13,10,19.90
2017,06,23,13,11,19.90
2017,06,23,13,12,19.90
2017,06,23,13,13,20.10
2017,06,23,13,14,20.10
2017,06,23,13,15,20.10
2017,06,23,13,16,20.10
2017,06,23,13,17,20.10
2017,06,23,13,19,20.20
2017,06,23,13,21,20.20
2017,06,23,13,22,20.30
2017,06,23,13,23,20.30
2017,06,23,13,24,20.30
2017,06,23,13,26,20.30
2017,06,23,13,27,20.30
2017,06,23,13,28,20.30
2017,06,23,13,29,20.30
2017,06,23,13,31,20.20
2017,06,23,13,32,20.20
2017,06,23,13,33,20.10
2017,06,23,13,34,20.10
2017,06,23,13,36,19.90
2017,06,23,13,37,19.90
2017,06,23,13,38,19.80
2017,06,23,13,39,19.80
2017,06,23,13,41,19.70
2017,06,23,13,42,19.70
2017,06,23,13,43,19.70
2017,06,23,13,44,19.70
2017,06,23,13,46,19.70
2017,06,23,13,47,19.70
2017,06,23,13,48,19.70
2017,06,23,13,49,19.70
2017,06,23,13,51,19.80
2017,06,23,13,52,19.80
2017,06,23,13,53,19.90
2017,06,23,13,54,19.90
2017,06,23,13,56,19.90
2017,06,23,13,57,19.90
2017,06,23,13,58,20.10
2017,06,23,13,59,20.20
2017,06,23,14,01,20.20
2017,06,23,14,02,20.30
2017,06,23,14,03,20.30
2017,06,23,14,04,20.30
2017,06,23,14,06,20.30
2017,06,23,14,07,20.30
2017,06,23,14,08,20.30
2017,06,23,14,09,20.30
2017,06,23,14,11,20.30
2017,06,23,14,12,20.20
2017,06,23,14,13,20.20
2017,06,23,14,14,20.20
2017,06,23,14,16,20.20
2017,06,23,14,17,20.20
2017,06,23,14,18,20.20
2017,06,23,14,19,20.20
2017,06,23,14,21,20.20
2017,06,23,14,22,20.20
2017,06,23,14,23,20.20
2017,06,23,14,24,20.20
2017,06,23,14,26,20.20
2017,06,23,14,27,20.20
2017,06,23,14,28,20.20
2017,06,23,14,29,20.20
2017,06,23,14,31,20.20
2017,06,23,14,32,20.10
2017,06,23,14,33,20.10
2017,06,23,14,34,20.10
2017,06,23,14,36,20.10
2017,06,23,14,37,20.10
2017,06,23,14,38,19.90
2017,06,23,14,39,19.90
2017,06,23,14,41,19.90
2017,06,23,14,42,19.90
2017,06,23,14,43,19.90
2017,06,23,14,44,19.90
2017,06,23,14,45,19.90
2017,06,23,14,46,19.90
2017,06,23,14,47,20.10
2017,06,23,14,48,20.10
2017,06,23,14,49,20.10
2017,06,23,14,50,20.10
2017,06,23,14,51,20.10
2017,06,23,14,52,20.10
2017,06,23,14,53,20.10
2017,06,23,14,54,20.20
2017,06,23,14,55,20.20
2017,06,23,14,56,20.20
2017,06,23,14,57,20.20
2017,06,23,14,58,20.20
2017,06,23,14,59,20.20
2017,06,23,15,00,20.20
2017,06,23,15,01,20.30
2017,06,23,15,02,20.30
2017,06,23,15,03,20.30
2017,06,23,15,04,20.40
2017,06,23,15,05,20.40
2017,06,23,15,06,20.40
2017,06,23,15,07,20.30
2017,06,23,15,08,20.30
2017,06,23,15,09,20.30
2017,06,23,15,10,20.30
2017,06,23,15,11,20.30
2017,06,23,15,12,20.30
2017,06,23,15,13,20.30
2017,06,23,15,14,20.30
2017,06,23,15,15,20.40
2017,06,23,15,16,20.40
2017,06,23,15,17,20.40
2017,06,23,15,18,20.40
2017,06,23,15,19,20.50
2017,06,23,15,20,20.50
2017,06,23,15,21,20.60
2017,06,23,15,22,20.60
2017,06,23,15,23,20.60
2017,06,23,15,24,20.70
2017,06,23,15,25,20.70
2017,06,23,15,26,20.80
2017,06,23,15,27,20.80
2017,06,23,15,28,20.90
2017,06,23,15,29,20.90
2017,06,23,15,30,21.00
2017,06,23,15,31,21.00
2017,06,23,15,32,21.10
2017,06,23,15,33,21.10
2017,06,23,15,34,21.20
2017,06,23,15,35,21.20
2017,06,23,15,36,21.20
2017,06,23,15,37,21.30
2017,06,23,15,38,21.30
2017,06,23,15,39,21.30
2017,06,23,15,40,21.30
2017,06,23,15,41,21.20
2017,06,23,15,42,21.20
2017,06,23,15,43,21.20
2017,06,23,15,44,21.20
2017,06,23,15,45,21.20
2017,06,23,15,46,21.20
2017,06,23,15,47,21.20
2017,06,23,15,48,21.20
2017,06,23,15,49,21.30
2017,06,23,15,50,21.30
2017,06,23,15,51,21.30
2017,06,23,15,52,21.30
2017,06,23,15,53,21.30
2017,06,23,15,54,21.30
2017,06,23,15,55,21.30
2017,06,23,15,56,21.30
2017,06,23,15,57,21.40
2017,06,23,15,58,21.40
2017,06,23,15,59,21.40
2017,06,23,16,00,21.60
2017,06,23,16,01,21.60
2017,06,23,16,02,21.60
2017,06,23,16,03,21.60
2017,06,23,16,04,21.60
2017,06,23,16,06,21.60
2017,06,23,16,07,21.70
2017,06,23,16,08,21.70
2017,06,23,16,09,21.80
2017,06,23,16,11,21.80
2017,06,23,16,12,21.90
2017,06,23,16,13,21.90
2017,06,23,16,14,22.00
2017,06,23,16,16,22.10
2017,06,23,16,17,22.10
2017,06,23,16,18,22.20
2017,06,23,16,19,22.30
2017,06,23,16,21,22.30
2017,06,23,16,22,22.40
2017,06,23,16,23,22.40
2017,06,23,16,24,22.40
2017,06,23,16,26,22.40
2017,06,23,16,27,22.40
2017,06,23,16,28,22.40
2017,06,23,16,29,22.40
2017,06,23,16,31,22.40
2017,06,23,16,32,22.40
2017,06,23,16,33,22.40
2017,06,23,16,34,22.40
2017,06,23,16,36,22.50
2017,06,23,16,37,22.50
2017,06,23,16,38,22.60
2017,06,23,16,39,22.60
2017,06,23,16,41,22.70
2017,06,23,16,42,22.70
2017,06,23,16,43,22.80
2017,06,23,16,44,22.80
2017,06,23,16,46,22.80
2017,06,23,16,47,22.80
2017,06,23,16,48,22.80
2017,06,23,16,49,22.80
2017,06,23,16,51,22.80
2017,06,23,16,52,22.80
2017,06,23,16,53,22.80
2017,06,23,16,54,22.80
2017,06,23,16,56,22.90
2017,06,23,16,57,22.90
2017,06,23,16,58,22.90
2017,06,23,16,59,22.90
2017,06,23,17,01,22.90
2017,06,23,17,02,23.10
2017,06,23,17,03,23.10
2017,06,23,17,04,23.20
2017,06,23,17,06,23.30
2017,06,23,17,07,23.30
2017,06,23,17,08,23.40
2017,06,23,17,09,23.60
2017,06,23,17,11,23.70
2017,06,23,17,12,23.80
2017,06,23,17,13,23.90
2017,06,23,17,14,24.10
2017,06,23,17,16,24.10
2017,06,23,17,17,24.10
2017,06,23,17,18,24.20
2017,06,23,17,19,24.20
2017,06,23,17,21,24.30
2017,06,23,17,22,24.40
2017,06,23,17,23,24.40
2017,06,23,17,24,24.50
2017,06,23,17,26,24.60
2017,06,23,17,27,24.60
2017,06,23,17,28,24.70
2017,06,23,17,29,24.70
2017,06,23,17,31,24.80
2017,06,23,17,32,24.80
2017,06,23,17,33,24.80
2017,06,23,17,34,24.90
2017,06,23,17,36,24.90
2017,06,23,17,37,25.00
2017,06,23,17,38,24.90
2017,06,23,17,39,24.70
2017,06,23,17,40,24.60
2017,06,23,17,41,24.20
2017,06,23,17,42,23.90
2017,06,23,17,43,23.70
2017,06,23,17,44,23.30
2017,06,23,17,45,23.20
2017,06,23,17,46,22.90
2017,06,23,17,47,22.70
2017,06,23,17,48,22.60
2017,06,23,17,49,22.60
2017,06,23,17,50,22.60
2017,06,23,17,51,22.50
2017,06,23,17,52,22.50
2017,06,23,17,53,22.50
2017,06,23,17,54,22.50
2017,06,23,17,55,22.50
2017,06,23,17,56,22.50
2017,06,23,17,57,22.40
2017,06,23,17,58,22.30
2017,06,23,17,59,22.30
2017,06,23,18,00,22.30
2017,06,23,18,01,22.20
2017,06,23,18,02,22.20
2017,06,23,18,03,22.20
2017,06,23,18,04,22.20
2017,06,23,18,05,22.20
2017,06,23,18,06,22.30
2017,06,23,18,07,22.30
2017,06,23,18,08,22.30
2017,06,23,18,09,22.30
2017,06,23,18,10,22.40
2017,06,23,18,11,22.40
2017,06,23,18,12,22.50
2017,06,23,18,13,22.50
2017,06,23,18,14,22.60
2017,06,23,18,15,22.60
2017,06,23,18,16,22.70
2017,06,23,18,17,22.70
2017,06,23,18,18,22.80
2017,06,23,18,19,22.90
2017,06,23,18,20,22.90
2017,06,23,18,21,22.90
2017,06,23,18,22,23.10
2017,06,23,18,23,23.10
2017,06,23,18,24,23.20
2017,06,23,18,25,23.20
2017,06,23,18,26,23.30
2017,06,23,18,27,23.30
2017,06,23,18,28,23.30
2017,06,23,18,29,23.40
2017,06,23,18,30,23.40
2017,06,23,18,31,23.60
2017,06,23,18,32,23.60
2017,06,23,18,33,23.60
2017,06,23,18,34,23.40
2017,06,23,18,35,23.40
2017,06,23,18,36,23.30
2017,06,23,18,37,23.30
2017,06,23,18,38,23.30
2017,06,23,18,39,23.30
2017,06,23,18,40,23.30
2017,06,23,18,41,23.30
2017,06,23,18,42,23.30
2017,06,23,18,43,23.30
2017,06,23,18,44,23.30
2017,06,23,18,45,23.30
2017,06,23,18,46,23.30
2017,06,23,18,47,23.30
2017,06,23,18,48,23.30
2017,06,23,18,49,23.30
2017,06,23,18,50,23.20
2017,06,23,18,51,23.20
2017,06,23,18,52,23.10
2017,06,23,18,53,23.10
2017,06,23,18,54,22.90
2017,06,23,18,55,22.90
2017,06,23,18,56,22.90
2017,06,23,18,57,22.80
2017,06,23,18,58,22.70
2017,06,23,18,59,22.60
2017,06,23,19,00,22.60
2017,06,23,19,01,22.60
2017,06,23,19,03,22.60
2017,06,23,19,04,22.60
2017,06,23,19,06,22.70
2017,06,23,19,07,22.80
2017,06,23,19,08,22.80
2017,06,23,19,09,22.90
2017,06,23,19,11,22.90
2017,06,23,19,12,23.10
2017,06,23,19,13,23.10
2017,06,23,19,14,23.20
2017,06,23,19,16,23.30
2017,06,23,19,17,23.40
2017,06,23,19,18,23.60
2017,06,23,19,19,23.60
2017,06,23,19,21,23.70
2017,06,23,19,22,23.70
2017,06,23,19,23,23.70
2017,06,23,19,24,23.70
2017,06,23,19,26,23.80
2017,06,23,19,27,23.80
2017,06,23,19,28,23.90
2017,06,23,19,29,24.10